Precipitable_Water
1.48 1.38 1.29 1.21 1.21 1.30 1.31 1.33 1.31 1.43 1.51 1.54 1.56 1.53 1.51 1.49 1.52 1.45 1.28 1.16 1.13 1.17 1.22 1.21 1.12 1.18 1.19 1.21 1.24 1.20 1.17 1.20 1.11 1.20 1.28 1.34 1.34 1.33 1.34 1.39 1.38 1.37 1.25
1.46 1.45 1.35 1.25 1.22 1.25 1.26 1.29 1.37 1.41 1.50 1.53 1.53 1.52 1.53 1.54 1.52 1.48 1.40 1.21 1.11 1.11 1.16 1.19 1.16 1.20 1.25 1.28 1.23 1.24 1.21 1.30 1.18 1.12 1.26 1.31 1.31 1.33 1.37 1.39 1.40 1.47 1.46
1.48 1.45 1.41 1.28 1.20 1.24 1.18 1.31 1.33 1.36 1.42 1.56 1.57 1.57 1.58 1.54 1.54 1.55 1.52 1.37 1.18 1.11 1.17 1.20 1.17 1.20 1.22 1.24 1.22 1.14 1.19 1.30 1.30 1.24 1.22 1.32 1.29 1.34 1.29 1.32 1.39 1.40 1.46
1.47 1.42 1.38 1.28 1.14 1.20 1.23 1.23 1.30 1.32 1.34 1.43 1.55 1.58 1.59 1.60 1.62 1.62 1.59 1.52 1.39 1.22 1.18 1.24 1.24 1.22 1.27 1.27 1.27 1.14 1.28 1.27 1.31 1.23 1.18 1.22 1.25 1.30 1.31 1.24 1.22 1.32 1.27
1.37 1.32 1.28 1.34 1.22 1.23 1.26 1.22 1.26 1.31 1.32 1.40 1.45 1.51 1.58 1.62 1.61 1.66 1.66 1.68 1.59 1.39 1.28 1.22 1.26 1.29 1.41 1.40 1.41 1.26 1.26 1.20 1.22 1.19 1.19 1.20 1.18 1.17 1.13 1.20 1.17 1.19 1.19
1.41 1.32 1.30 1.28 1.26 1.17 1.23 1.27 1.22 1.29 1.36 1.39 1.42 1.46 1.51 1.61 1.68 1.76 1.77 1.77 1.72 1.56 1.34 1.17 1.27 1.35 1.42 1.50 1.48 1.44 1.39 1.31 1.22 1.26 1.24 1.15 1.14 1.15 1.15 1.11 1.06 1.02 0.90
1.37 1.42 1.40 1.26 1.22 1.14 1.23 1.29 1.26 1.27 1.38 1.44 1.49 1.57 1.64 1.73 1.82 1.89 1.88 1.81 1.75 1.64 1.44 1.20 1.27 1.43 1.48 1.53 1.49 1.45 1.42 1.44 1.44 1.37 1.25 1.21 1.18 1.18 1.11 1.04 1.02 0.98 0.92
1.27 1.37 1.45 1.42 1.20 1.20 1.21 1.24 1.34 1.44 1.44 1.50 1.56 1.69 1.90 2.10 2.11 1.99 1.95 1.79 1.71 1.59 1.46 1.27 1.36 1.44 1.51 1.53 1.44 1.41 1.42 1.42 1.41 1.45 1.40 1.31 1.30 1.25 1.19 1.14 1.08 1.04 1.03
1.20 1.26 1.38 1.48 1.40 1.28 1.15 1.21 1.34 1.46 1.53 1.60 1.71 1.83 1.87 1.44 2.03 1.93 1.80 1.70 1.57 1.48 1.40 1.44 1.47 1.50 1.54 1.48 1.41 1.36 1.29 1.30 1.46 1.46 1.42 1.41 1.36 1.26 1.21 1.13 0.97 0.90 0.81
1.19 1.18 1.25 1.42 1.51 1.45 1.34 1.26 1.36 1.52 1.71 1.83 1.89 1.92 1.63 1.57 1.84 1.83 1.72 1.56 1.42 1.38 1.42 1.49 1.53 1.47 1.47 1.48 1.37 1.25 1.22 1.31 1.37 1.34 1.32 1.27 1.22 1.14 1.12 1.06 0.96 0.83 0.84
1.13 1.17 1.26 1.34 1.49 1.57 1.59 1.54 1.50 1.58 1.81 1.87 1.94 1.97 1.72 1.71 1.73 1.67 1.57 1.43 1.36 1.33 1.33 1.35 1.39 1.42 1.41 1.37 1.37 1.36 1.38 1.40 1.30 1.17 1.08 1.03 0.99 0.97 0.94 0.93 0.90 0.82 0.74
1.20 1.25 1.28 1.35 1.44 1.65 1.64 1.64 1.74 1.75 1.70 1.76 1.76 1.79 1.81 1.77 1.62 1.52 1.51 1.45 1.40 1.31 1.31 1.36 1.35 1.31 1.28 1.25 1.31 1.33 1.29 1.19 1.06 0.94 0.88 0.85 0.83 0.82 0.81 0.81 0.81 0.80 0.80
1.26 1.25 1.31 1.42 1.50 1.63 1.63 1.67 1.71 1.75 1.71 1.68 1.71 1.61 1.61 1.55 1.56 1.52 1.49 1.43 1.40 1.37 1.39 1.32 1.26 1.22 1.19 1.22 1.24 1.17 1.08 0.99 0.89 0.84 0.80 0.76 0.76 0.76 0.76 0.76 0.77 0.74 0.69
1.24 1.40 1.45 1.46 1.52 1.64 1.71 1.77 1.69 1.72 1.72 1.73 1.60 1.49 1.38 1.44 1.43 1.46 1.43 1.39 1.43 1.42 1.36 1.25 1.19 1.14 1.14 1.14 1.05 0.99 0.95 0.91 0.86 0.77 0.71 0.75 0.79 0.75 0.70 0.68 0.61 0.55 0.47
1.39 1.56 1.54 1.59 1.64 1.69 1.76 1.86 1.92 1.94 1.87 1.62 1.43 1.37 1.32 1.31 1.37 1.40 1.41 1.38 1.39 1.31 1.22 1.08 1.01 1.02 0.95 0.87 0.89 0.90 0.91 0.88 0.77 0.76 0.73 0.72 0.71 0.69 0.64 0.60 0.47 0.43 0.36
1.57 1.65 1.76 1.69 1.81 1.84 1.88 1.93 2.03 1.86 1.69 1.56 1.46 1.39 1.41 1.41 1.43 1.39 1.37 1.34 1.23 1.10 0.96 0.89 0.88 0.85 0.84 0.81 0.80 0.83 0.86 0.82 0.78 0.77 0.73 0.66 0.61 0.60 0.55 0.45 0.36 0.32 0.30
1.78 1.74 1.78 1.73 1.69 1.97 1.50 1.37 1.54 1.49 1.54 1.44 1.45 1.43 1.48 1.39 1.36 1.33 1.31 1.18 1.03 0.96 0.86 0.84 0.82 0.84 0.79 0.77 0.78 0.78 0.73 0.72 0.73 0.67 0.59 0.57 0.55 0.55 0.48 0.33 0.31 0.31 0.30
1.79 1.81 1.77 1.76 1.51 1.42 1.36 1.40 1.46 1.33 1.25 1.26 1.32 1.42 1.50 1.48 1.40 1.27 1.15 1.09 0.95 0.97 0.91 0.86 0.83 0.80 0.75 0.72 0.73 0.70 0.66 0.62 0.61 0.59 0.56 0.52 0.47 0.40 0.35 0.30 0.28 0.28 0.31
1.58 1.58 1.58 1.46 1.44 1.46 1.43 1.40 1.41 1.36 1.34 1.29 1.36 1.43 1.41 1.35 1.18 1.17 1.13 0.99 0.90 0.89 0.86 0.80 0.79 0.76 0.73 0.68 0.66 0.65 0.64 0.62 0.62 0.58 0.48 0.41 0.40 0.37 0.30 0.28 0.29 0.32 0.33
1.61 1.65 1.56 1.52 1.50 1.47 1.45 1.43 1.39 1.38 1.29 1.30 1.22 1.23 1.18 1.07 1.03 1.04 1.00 0.95 0.92 0.85 0.79 0.76 0.79 0.77 0.71 0.66 0.66 0.66 0.66 0.63 0.56 0.46 0.37 0.35 0.37 0.33 0.28 0.29 0.32 0.30 0.31
1.53 1.61 1.56 1.49 1.45 1.41 1.42 1.42 1.37 1.30 1.34 1.33 1.30 1.19 1.11 1.04 1.00 0.93 0.95 0.94 0.88 0.81 0.77 0.72 0.75 0.74 0.69 0.67 0.68 0.67 0.63 0.60 0.53 0.41 0.34 0.35 0.33 0.29 0.29 0.31 0.31 0.31 0.31
1.37 1.35 1.35 1.49 1.54 1.51 1.47 1.43 1.42 1.42 1.33 1.26 1.28 1.23 1.10 1.01 1.01 0.99 0.98 0.94 0.90 0.86 0.82 0.73 0.71 0.72 0.70 0.68 0.65 0.63 0.59 0.52 0.48 0.39 0.34 0.33 0.31 0.30 0.29 0.29 0.30 0.31 0.29
1.44 1.44 1.41 1.40 1.42 1.45 1.48 1.49 1.47 1.40 1.31 1.22 1.24 1.18 1.07 1.05 1.04 1.00 0.95 0.92 0.92 0.89 0.88 0.81 0.76 0.76 0.74 0.71 0.67 0.59 0.53 0.49 0.45 0.40 0.33 0.32 0.30 0.27 0.25 0.28 0.30 0.30 0.27
1.47 1.42 1.44 1.43 1.44 1.41 1.37 1.31 1.38 1.31 1.28 1.20 1.12 1.08 1.05 1.08 1.08 1.01 0.96 0.96 0.92 0.87 0.87 0.84 0.77 0.65 0.65 0.61 0.60 0.53 0.49 0.49 0.46 0.39 0.31 0.27 0.23 0.20 0.19 0.26 0.31 0.30 0.28
1.31 1.28 1.23 1.25 1.30 1.30 1.31 1.31 1.29 1.28 1.21 1.17 1.14 1.12 1.07 1.06 1.03 1.05 0.99 0.90 0.83 0.84 0.80 0.77 0.68 0.61 0.58 0.57 0.56 0.55 0.48 0.42 0.37 0.33 0.28 0.24 0.20 0.18 0.19 0.28 0.31 0.29 0.29
1.19 1.17 1.16 1.22 1.26 1.26 1.25 1.23 1.18 1.17 1.15 1.17 1.13 1.12 1.08 1.09 1.07 1.02 0.94 0.89 0.82 0.76 0.71 0.66 0.63 0.60 0.58 0.57 0.54 0.52 0.46 0.38 0.32 0.30 0.27 0.21 0.16 0.16 0.24 0.29 0.31 0.29 0.28
Wind_Speed
23 22 21 23 24 24 24 23 22 20 19 17 16 14 13 12 12 12 12 13 13 15 15 15 16 16 17 16 14 14 14 15 16 16 15 15 17 18 18 19 21 22 23
25 23 22 22 24 25 25 25 23 22 20 19 17 16 15 14 14 15 14 15 16 16 16 17 18 18 19 17 17 17 16 16 16 17 18 19 20 20 21 23 25 25 25
26 24 23 23 25 26 26 26 24 23 22 20 19 18 17 17 17 17 17 18 19 19 19 19 20 20 20 20 19 20 20 19 18 18 19 20 23 24 25 26 26 27 27
26 26 25 24 26 28 27 26 26 25 23 23 22 21 20 20 20 20 20 20 21 21 20 21 22 22 22 21 21 21 21 20 21 22 22 23 24 26 29 30 29 27 27
27 27 27 27 27 29 29 28 27 26 25 24 24 23 22 22 22 22 23 22 23 22 23 23 24 24 23 23 22 21 21 22 23 24 23 24 26 28 29 29 27 28 29
28 28 28 28 27 30 30 29 28 27 26 25 25 26 25 24 24 24 24 24 24 23 25 25 25 24 24 23 22 22 22 23 24 25 25 26 28 30 29 29 29 30 30
30 29 28 29 29 30 31 30 29 28 26 25 26 27 27 26 26 24 23 23 23 24 25 25 24 24 24 23 23 23 24 26 27 27 27 29 31 32 31 31 32 32 33
30 30 31 29 30 30 32 33 30 29 27 27 27 27 27 28 24 22 22 22 23 25 25 25 24 24 23 23 24 25 25 26 27 28 30 32 34 32 33 34 34 36 35
32 31 32 33 31 31 32 33 32 30 29 28 27 26 22 22 24 22 21 21 23 24 24 23 24 24 24 24 25 25 26 28 28 29 32 33 33 34 36 35 35 35 35
35 34 33 35 35 32 33 33 33 31 29 27 27 26 26 22 21 21 22 22 23 23 22 23 24 25 25 25 26 27 27 27 29 30 31 32 34 35 35 35 34 32 32
37 34 33 35 37 35 32 32 32 31 30 27 27 26 23 22 22 23 22 22 22 22 22 23 24 24 25 26 25 25 26 26 28 30 31 32 33 33 31 29 29 29 29
39 38 37 37 36 38 35 33 32 32 30 28 25 24 22 23 23 22 22 22 22 23 23 23 23 23 23 23 24 25 26 27 28 28 29 30 29 27 27 27 28 28 29
40 38 37 36 35 38 37 35 33 32 30 28 25 23 22 21 22 22 22 22 22 22 22 22 22 23 23 23 24 24 24 25 26 26 26 25 24 25 25 27 28 29 29
39 36 37 36 35 37 38 37 36 34 30 28 25 23 21 21 22 21 21 22 22 22 21 22 22 23 23 23 22 23 23 23 23 22 23 23 24 23 25 26 27 27 26
39 36 34 33 33 34 35 36 35 33 29 25 23 22 21 21 21 21 20 21 22 21 21 22 22 22 21 21 22 22 22 21 20 21 22 22 21 23 24 25 24 23 22
37 38 34 33 31 32 32 32 26 25 22 22 21 20 20 20 20 21 21 21 19 19 21 20 20 19 20 21 21 21 20 20 21 20 20 20 21 21 22 23 22 21 20
34 35 35 33 30 31 29 27 19 21 20 20 20 21 21 20 20 21 21 20 18 19 19 19 19 19 20 21 19 18 18 18 18 17 19 20 21 22 22 22 21 21 21
26 29 30 33 29 26 24 23 24 23 22 21 19 20 21 22 24 20 17 18 18 19 18 18 19 19 19 17 16 16 16 16 16 17 19 20 20 20 20 20 21 20 21
21 23 23 23 24 25 23 22 22 21 21 21 21 22 23 23 18 17 18 18 18 18 18 19 18 17 16 16 16 16 15 16 17 18 18 18 18 19 19 19 20 21 22
18 19 20 21 23 24 24 23 23 22 23 25 23 22 19 17 17 18 17 17 18 18 18 18 17 17 16 16 16 15 16 16 17 17 17 17 17 17 18 19 20 21 22
17 19 18 20 22 23 25 25 25 28 27 23 21 21 19 18 18 18 17 17 17 17 17 17 16 16 16 16 16 16 16 16 16 17 17 16 16 17 18 18 20 21 21
16 17 17 19 19 22 26 28 28 27 24 21 20 19 18 18 17 18 18 18 18 18 17 17 17 17 17 17 17 16 16 16 17 17 16 15 15 16 17 18 19 19 20
21 22 21 19 21 24 22 21 22 21 20 21 20 20 20 19 18 18 18 18 18 18 18 18 17 17 17 16 16 16 16 16 16 16 15 15 16 17 16 17 18 19 18
15 15 16 14 15 14 15 18 20 19 19 20 20 20 20 19 19 19 18 18 19 18 18 18 18 18 17 17 16 15 16 16 15 15 14 15 15 16 16 16 17 18 18
16 16 17 17 17 17 18 19 19 20 19 20 20 20 20 19 19 19 19 18 17 17 18 18 18 17 16 16 16 16 15 15 14 14 15 15 16 15 14 15 16 17 17
18 17 18 17 17 18 18 19 19 19 20 20 21 21 21 21 21 20 20 19 18 18 18 17 17 17 16 16 16 15 14 14 14 15 15 15 15 14 13 14 15 15 16
Wind_Direction
225 226 227 226 224 221 219 219 218 219 218 219 225 231 239 251 262 272 281 291 297 298 296 300 308 311 307 304 297 298 289 287 288 290 288 291 296 295 292 291 290 286 285
224 226 228 227 222 219 219 217 217 219 221 224 229 236 244 252 263 272 280 285 293 295 296 294 300 305 307 297 293 291 290 288 290 287 286 290 293 299 297 294 292 289 287
223 225 227 227 221 218 218 218 220 222 225 228 234 241 248 256 265 273 279 283 287 290 292 294 296 299 300 296 290 287 287 285 285 288 285 290 293 295 298 298 296 293 289
224 225 227 227 222 218 219 221 223 226 229 234 240 246 254 260 267 273 279 281 283 288 288 291 293 294 298 297 289 284 283 282 283 287 287 289 293 296 297 297 295 292 289
225 226 227 227 224 221 222 224 226 230 234 239 243 249 255 261 268 272 278 281 281 285 288 288 291 291 292 291 291 283 280 281 285 287 287 290 293 298 298 297 293 292 292
227 228 227 226 226 223 223 226 227 232 238 241 246 252 257 263 268 272 276 280 281 284 287 290 288 288 289 286 290 281 280 281 285 284 287 289 295 298 297 293 292 292 293
228 229 227 226 226 226 225 226 230 234 238 244 250 255 260 264 267 270 275 280 282 284 287 289 286 289 288 284 288 284 284 284 286 285 285 288 294 296 295 293 292 291 291
231 230 226 226 226 227 227 228 232 235 240 246 253 259 266 262 266 269 276 282 284 286 286 286 285 287 285 283 287 286 286 287 287 286 287 291 294 294 294 294 293 292 291
232 232 230 228 229 228 229 230 233 237 242 247 253 257 272 270 269 273 277 283 288 288 286 284 285 286 287 286 287 287 288 289 289 289 291 293 292 294 295 294 293 292 292
232 234 234 231 230 231 231 231 233 236 241 246 251 255 269 272 271 274 280 285 288 288 286 286 287 288 287 285 288 287 288 290 292 294 295 295 295 295 295 293 293 292 292
233 235 234 233 230 230 231 231 231 234 240 245 249 256 263 267 269 276 279 283 287 287 288 288 290 290 289 288 287 288 288 291 294 296 297 297 298 298 297 296 295 293 292
235 237 237 235 232 230 229 230 232 234 237 241 249 252 261 266 269 273 276 280 284 286 287 289 291 293 295 292 289 290 290 293 297 299 301 302 301 300 300 299 298 296 294
236 237 235 231 230 228 227 230 234 233 236 241 247 251 260 262 268 272 273 278 283 287 288 289 291 294 296 295 293 292 294 297 298 301 303 305 305 304 304 303 302 300 298
231 231 230 231 232 229 229 231 232 231 232 238 240 250 256 260 267 271 274 278 282 286 287 290 293 295 296 295 295 295 297 297 300 302 304 306 308 308 309 309 307 305 303
227 228 228 228 230 227 230 233 229 231 227 230 239 247 252 260 264 267 273 278 280 282 286 291 293 295 294 295 297 298 297 298 300 303 305 307 308 311 313 315 313 310 308
224 225 226 228 228 225 226 232 223 231 227 231 238 246 253 260 265 268 273 279 278 280 289 291 292 292 293 296 297 298 298 298 301 301 304 308 310 313 316 318 317 313 310
219 222 223 227 227 226 228 242 222 218 225 233 241 251 253 262 265 270 273 273 274 280 288 289 290 292 294 297 296 297 298 300 301 302 305 308 310 313 315 318 318 316 313
222 228 224 226 227 225 223 216 216 224 232 242 249 250 258 264 269 265 263 271 275 280 286 287 289 291 294 293 293 298 301 303 304 307 310 311 314 315 317 318 319 318 316
212 213 209 209 209 209 213 220 224 232 241 250 253 254 262 266 262 258 263 271 273 279 281 285 288 290 289 292 295 296 299 300 303 308 311 313 317 318 318 318 321 321 320
202 203 203 205 206 211 217 223 231 239 252 254 251 249 251 255 256 260 267 270 273 279 280 283 284 287 286 288 291 293 297 300 303 307 310 312 314 318 320 321 323 324 324
203 208 209 212 216 221 226 232 241 251 251 262 238 239 243 251 257 260 265 269 274 278 278 283 283 282 283 284 287 289 292 297 301 305 308 309 313 317 321 323 325 326 328
216 216 221 223 230 235 240 247 251 246 244 242 239 240 245 252 257 259 263 268 272 275 278 280 280 281 283 285 285 284 290 294 298 301 302 304 310 316 320 323 327 328 331
238 240 248 237 246 241 242 245 246 231 235 235 237 240 246 252 254 259 265 268 269 273 277 279 277 279 281 280 281 283 287 292 295 297 295 300 306 312 317 321 326 328 330
235 239 238 242 239 244 237 237 230 240 239 237 239 243 245 250 254 261 265 268 270 272 273 275 274 276 274 276 274 280 286 290 289 293 294 298 303 308 312 317 324 327 328
237 240 244 247 241 240 239 238 237 239 243 244 247 246 248 250 258 261 263 266 267 271 275 273 271 271 270 271 273 278 284 284 285 287 292 297 300 302 306 313 320 326 329
245 248 249 245 241 234 231 234 239 244 245 246 248 249 249 251 258 261 263 263 267 273 273 270 269 268 265 268 269 272 278 281 283 286 291 294 294 296 300 308 316 321 327